Torna al catalogo

CZ-6A DEB

AttivoSSO
NORAD 56248·DEBRIS·🇨🇳 China

Lanciato Nov 11, 2022 da Taiyuan Satellite Launch Center

Loading…

Prossimi Passaggi (prossime 24 ore)

TLE

AggiornatoSource: Space-Track

Epoca: Sep 14, 2026, 09:22 UTC

1 56248U 22151ABQ 26257.39048340  .00000340  00000-0  23961-3 0  9990
2 56248  98.8776 239.6248 0076000 127.3221 233.4903 14.03114141178647

Traccia CZ-6A DEB in tempo reale con AllMySat

Download on the App Store